[[{"header":{"parameterUnit":"m.s-1","parameterCategory":1,"la1":30.2991,"la2":30.254,"lo1":-89.0895,"lo2":-89.0444,"dy":0.0017,"dx":0.0017,"nx":28,"ny":28,"refTime":"2025-05-20T03:00:00:Z","depth":0,"parameterNumber":2,"parameterNumberName":"U-component_of_WINDS"},"data":[0,0,0,0,0,0,0,0,0,0,0,0,0,0,0,0,0,0,0,0,0,0,0,0,0,0,0,0,0,0,0,0,0,0,0,0,0,0,0,0,0,0,0,0,0,0,0,0,0,0,0,0,0,0,0,0,0,0,3.2351,3.2352,0,3.2489,3.2491,3.2492,3.2498,3.2496,3.2495,3.2493,3.2637,3.2642,3.2648,0,0,0,0,0,0,0,0,0,0,0,0,0,3.2096,3.2101,3.2351,3.2353,3.2354,3.2489,3.2491,3.2493,3.2498,3.2496,3.2494,3.2492,3.2635,3.2642,3.2648,0,0,0,0,0,0,0,0,0,0,0,0,0,3.2218,3.2102,3.2351,3.2373,3.2377,3.2489,3.2491,3.2493,3.2499,3.2496,3.2494,3.2491,3.2633,3.2641,3.2649,3.2748,0,0,3.2674,3.2677,0,0,0,0,0,0,0,0,3.2211,3.2227,3.2368,3.2372,3.2376,3.2474,3.2454,3.2579,3.2499,3.2452,3.2493,3.249,3.2585,3.2597,3.2628,3.2755,3.2761,3.2674,3.2679,3.2683,3.2685,0,0,0,0,0,0,0,3.2202,3.2221,3.2406,3.237,3.2375,3.2378,3.2392,3.2478,3.2531,3.2456,3.2457,3.2473,3.2587,3.262,3.2632,3.2764,3.2674,3.2681,3.2686,3.2689,3.2983,3.2986,0,0,0,0,0,0,3.2189,3.2214,3.2401,3.241,3.2285,3.2385,3.2401,3.2445,3.253,3.2541,3.2475,3.2473,3.2608,3.2622,3.2637,3.2761,3.2683,3.269,3.2695,3.298,3.2983,3.2987,0,0,0,0,0,0,3.2184,3.2206,3.2396,3.2312,3.2337,3.2392,3.2441,3.2449,3.2483,3.2544,3.2554,3.25,3.2606,3.2625,3.2721,3.2766,3.2694,3.2701,3.2976,3.2981,3.2985,3.3008,0,0,0,0,0,0,3.2176,3.2204,3.2241,3.2313,3.2341,3.2476,3.2444,3.2453,3.2496,3.2495,3.257,3.258,3.2606,3.2709,3.2729,3.2776,3.2707,3.2973,3.2978,3.2984,3.3004,3.3013,3.3021,0,0,0,0,0,3.2167,3.2241,3.2242,3.2265,3.2388,3.2479,3.2495,3.2523,3.25,3.2539,3.2579,3.2578,3.2758,3.2719,3.2742,3.2791,3.297,3.2977,3.2983,3.3,3.3011,3.3021,0,0,0,0,0,0,3.2173,3.2251,3.2253,3.2353,3.2409,3.248,3.2529,3.2533,3.2598,3.2594,3.2626,3.2643,3.2739,3.2775,3.273,3.2894,3.2861,3.2873,3.2866,3.2878,3.2886,3.2875,3.2714,0,0,0,0,0,3.2186,3.2252,3.2317,3.2399,3.2427,3.2473,3.2514,3.253,3.259,3.2614,3.2661,3.272,3.2791,3.2836,3.2904,3.3009,3.3027,3.3055,3.3063,3.307,3.308,3.3141,3.3155,3.3009,3.3008,3.3008,0,0,3.2213,3.2264,3.2303,3.2401,3.2447,3.2516,3.2493,3.2566,3.2619,3.2626,3.2719,3.2756,3.2825,3.2926,3.2974,3.2959,3.3124,3.3079,3.3083,3.309,3.3149,3.3163,3.3175,3.3013,3.3012,3.3011,0,0,3.2298,3.2342,3.2417,3.2463,3.2533,3.2564,3.2582,3.2652,3.2677,3.2771,3.2779,3.2843,3.2962,3.3011,3.3052,3.316,3.3162,3.3181,3.3225,3.3285,3.3296,3.3306,3.3347,3.336,3.319,3.319,3.319,0,3.2323,3.2426,3.2454,3.2529,3.2573,3.2583,3.2659,3.2704,3.2792,3.2823,3.2805,3.2958,3.3004,3.3119,3.3146,3.3178,3.3201,3.3172,3.3292,3.3303,3.3313,3.3351,3.3366,3.3192,3.3192,3.3192,3.3192,0,3.2455,3.2527,3.2579,3.2664,3.2714,3.2789,3.283,3.2878,3.2891,3.2925,3.3023,3.3079,3.316,3.3189,3.3202,3.3306,3.3296,3.3285,3.3253,3.3328,3.3365,3.338,3.3195,3.3194,3.3194,3.3193,0,0,3.2545,3.2647,3.2666,3.2706,3.2785,3.2842,3.2919,3.2998,3.3039,3.31,3.3167,3.327,3.3261,3.3307,3.3327,3.3379,3.3463,3.3362,3.3365,3.338,3.3584,3.3592,3.3609,3.3466,3.3468,3.3471,3.3579,0,3.264,3.2775,3.2805,3.2923,3.2991,3.3003,3.3071,3.3127,3.3161,3.3226,3.3264,3.3337,3.3319,3.3347,3.3399,3.3442,3.3505,3.3434,3.353,3.3533,3.3512,3.3628,3.3636,3.3735,3.3593,3.3596,3.3598,0,3.2767,3.2832,3.2957,3.303,3.306,3.3119,3.3196,3.3256,3.3322,3.3344,3.3397,3.3412,3.3495,3.346,3.3576,3.3527,3.3568,3.3596,3.36,3.361,3.3569,3.3642,3.3767,3.3782,3.362,3.3619,3.3617,0,3.2823,3.2942,3.3032,3.3066,3.3152,3.3195,3.3233,3.3297,3.3343,3.341,3.3441,3.3518,3.3559,3.3619,3.3655,3.3626,3.3769,3.3737,3.3791,3.379,3.382,3.3818,3.3954,3.3846,3.3846,3.3845,3.3845,0,3.2925,3.3001,3.3058,3.3114,3.3201,3.3235,3.3321,3.3359,3.3416,3.3481,3.3497,3.3558,3.3601,3.3669,3.3698,3.3791,3.381,3.3831,3.3838,3.383,3.3827,3.3857,3.3851,3.3849,3.3848,3.3848,3.3847,0,3.3001,3.3042,3.3142,3.3217,3.3237,3.3298,3.3363,3.3419,3.3454,3.3536,3.3558,3.3614,3.3695,3.3737,3.3838,3.3858,3.3963,3.3965,3.394,3.3943,3.3995,3.399,3.4156,3.4181,3.4055,3.4056,3.4057,0,3.3064,3.3123,3.3204,3.3249,3.3288,3.3359,3.3407,3.3444,3.3494,3.3575,3.3622,3.3704,3.3771,3.3901,3.3951,3.403,3.4035,3.4088,3.4046,3.4037,3.4037,3.4033,3.404,3.4095,3.4096,3.4097,3.4098,0,3.3171,3.319,3.3257,3.3334,3.3391,3.3453,3.3514,3.355,3.3597,3.3653,3.3736,3.3788,3.3892,3.3974,3.4057,3.4098,3.4107,3.411,3.4127,3.412,3.4103,3.4114,3.3961,3.4106,3.4105,3.4105,3.4104,3.4104,3.3244,3.3298,3.3364,3.344,3.349,3.3548,3.3605,3.3648,3.3717,3.3805,3.3823,3.3911,3.3979,3.4091,3.4135,3.4206,3.4196,3.422,3.4226,3.4231,3.4235,3.4092,3.4221,3.4221,3.4221,3.4221,3.4221,0,3.3353,3.3397,3.3467,3.3552,3.3613,3.3616,3.3685,3.3736,3.3813,3.3875,3.3942,3.4039,3.4119,3.4177,3.4259,3.4305,3.4312,3.4326,3.4323,3.4333,3.4239,3.4216,3.4319,3.4319,3.4319,3.4319,3.4319,3.4319,3.3417,3.351,3.3536,3.3655,3.3699,3.3785,3.3824,3.3878,3.3928,3.4036,3.4102,3.414,3.4201,3.4289,3.4364,3.4379,3.4409,3.4423,3.4439,3.435,3.4339,3.4329,3.4308,3.4429,3.4429,3.4527,3.4528,3.4529]},{"header":{"parameterUnit":"m.s-1","parameterCategory":1,"la1":30.2991,"la2":30.254,"lo1":-89.0895,"lo2":-89.0444,"dy":0.0017,"dx":0.0017,"nx":28,"ny":28,"refTime":"2025-05-20T03:00:00:Z","depth":0,"parameterNumber":3,"parameterNumberName":"V-component_of_WINDS"},"data":[0,0,0,0,0,0,0,0,0,0,0,0,0,0,0,0,0,0,0,0,0,0,0,0,0,0,0,0,0,0,0,0,0,0,0,0,0,0,0,0,0,0,0,0,0,0,0,0,0,0,0,0,0,0,0,0,0,0,-0.6389,-0.6389,0,-0.6339,-0.6339,-0.6338,-0.6373,-0.6375,-0.6376,-0.6378,-0.6323,-0.632,-0.6317,0,0,0,0,0,0,0,0,0,0,0,0,0,-0.6512,-0.651,-0.6389,-0.6389,-0.6388,-0.6339,-0.6339,-0.6338,-0.6373,-0.6375,-0.6377,-0.6379,-0.6324,-0.632,-0.6317,0,0,0,0,0,0,0,0,0,0,0,0,0,-0.646,-0.6509,-0.639,-0.64,-0.64,-0.634,-0.6339,-0.6338,-0.6372,-0.6375,-0.6377,-0.6379,-0.6325,-0.632,-0.6316,-0.6241,0,0,-0.6303,-0.6301,0,0,0,0,0,0,0,0,-0.6463,-0.6455,-0.6399,-0.6399,-0.6399,-0.6365,-0.6362,-0.6305,-0.6372,-0.6383,-0.6378,-0.6381,-0.6335,-0.6329,-0.6315,-0.6239,-0.6236,-0.6302,-0.63,-0.6298,-0.6296,0,0,0,0,0,0,0,-0.6466,-0.6458,-0.637,-0.6398,-0.6398,-0.6406,-0.6401,-0.6351,-0.6346,-0.6382,-0.6385,-0.6378,-0.6335,-0.6319,-0.6314,-0.6236,-0.6302,-0.6298,-0.6296,-0.6294,-0.6094,-0.6092,0,0,0,0,0,0,-0.647,-0.646,-0.6371,-0.6368,-0.6438,-0.6402,-0.6396,-0.6374,-0.6347,-0.6345,-0.6376,-0.638,-0.6325,-0.6319,-0.6312,-0.6221,-0.6298,-0.6294,-0.6291,-0.6097,-0.6093,-0.6091,0,0,0,0,0,0,-0.6472,-0.6461,-0.6373,-0.6415,-0.6404,-0.6397,-0.6371,-0.6371,-0.6355,-0.6342,-0.6341,-0.6361,-0.6327,-0.6318,-0.6259,-0.6219,-0.6292,-0.6288,-0.61,-0.6096,-0.6092,-0.6039,0,0,0,0,0,0,-0.6475,-0.6462,-0.6434,-0.6414,-0.6402,-0.6321,-0.6369,-0.6369,-0.6348,-0.6352,-0.6327,-0.6326,-0.6328,-0.6265,-0.6254,-0.6215,-0.6284,-0.6103,-0.6098,-0.6093,-0.6044,-0.6033,-0.6025,0,0,0,0,0,-0.648,-0.6421,-0.6433,-0.6422,-0.6367,-0.6319,-0.6312,-0.6317,-0.6345,-0.6316,-0.6308,-0.6326,-0.6226,-0.6259,-0.6247,-0.6205,-0.6106,-0.6099,-0.6094,-0.6048,-0.6036,-0.6025,0,0,0,0,0,0,-0.6435,-0.6418,-0.6431,-0.6364,-0.6343,-0.6325,-0.6289,-0.6304,-0.6273,-0.6278,-0.6285,-0.6279,-0.6216,-0.6205,-0.6242,-0.6131,-0.617,-0.6161,-0.614,-0.6127,-0.6118,-0.612,-0.628,0,0,0,0,0,-0.6418,-0.6381,-0.6368,-0.631,-0.6299,-0.6296,-0.6275,-0.6281,-0.6259,-0.6249,-0.6237,-0.6213,-0.6177,-0.6152,-0.6118,-0.6044,-0.6037,-0.6009,-0.6,-0.5992,-0.5983,-0.5941,-0.5928,-0.6071,-0.6071,-0.6071,0,0,-0.6381,-0.6367,-0.6343,-0.6301,-0.6285,-0.6245,-0.6288,-0.6245,-0.6215,-0.6243,-0.6185,-0.6175,-0.615,-0.6082,-0.6052,-0.6071,-0.5943,-0.5984,-0.5978,-0.5973,-0.5934,-0.592,-0.5908,-0.6067,-0.6068,-0.6068,0,0,-0.6292,-0.628,-0.6229,-0.6213,-0.6189,-0.6187,-0.6175,-0.6155,-0.615,-0.6093,-0.6113,-0.6077,-0.6014,-0.5994,-0.5976,-0.5881,-0.5896,-0.587,-0.5818,-0.5777,-0.5766,-0.5756,-0.5719,-0.5706,-0.5862,-0.5862,-0.5862,0,-0.6249,-0.6191,-0.6201,-0.6156,-0.6136,-0.6161,-0.6109,-0.6092,-0.6058,-0.6043,-0.6066,-0.5986,-0.5971,-0.5898,-0.5875,-0.5861,-0.5845,-0.5871,-0.5767,-0.5757,-0.5748,-0.5713,-0.5699,-0.5859,-0.5859,-0.586,-0.586,0,-0.6138,-0.6097,-0.6059,-0.6026,-0.6002,-0.5954,-0.5955,-0.593,-0.5938,-0.5934,-0.5874,-0.5858,-0.5819,-0.5803,-0.5811,-0.5731,-0.5743,-0.5767,-0.5805,-0.573,-0.5698,-0.5685,-0.5854,-0.5855,-0.5856,-0.5857,0,0,-0.6017,-0.5991,-0.5977,-0.5961,-0.5937,-0.5906,-0.5858,-0.5822,-0.5799,-0.5775,-0.5733,-0.568,-0.5701,-0.5681,-0.5687,-0.5651,-0.5574,-0.5678,-0.5678,-0.5657,-0.5482,-0.5462,-0.5446,-0.5586,-0.5583,-0.5581,-0.5483,0,-0.5926,-0.5844,-0.5851,-0.5773,-0.5734,-0.5759,-0.5717,-0.5697,-0.5692,-0.5658,-0.5652,-0.5613,-0.5646,-0.5633,-0.5599,-0.559,-0.5538,-0.5598,-0.5544,-0.5542,-0.5546,-0.543,-0.5409,-0.5317,-0.5471,-0.5468,-0.5467,0,-0.5807,-0.5779,-0.5697,-0.5678,-0.5663,-0.5625,-0.5592,-0.556,-0.5537,-0.5536,-0.5513,-0.5525,-0.5476,-0.5519,-0.545,-0.549,-0.5469,-0.5461,-0.5458,-0.545,-0.5497,-0.5416,-0.5288,-0.5273,-0.5447,-0.5449,-0.545,0,-0.5724,-0.5666,-0.5609,-0.5596,-0.5573,-0.5546,-0.5535,-0.5515,-0.5493,-0.5464,-0.5449,-0.5414,-0.5394,-0.5367,-0.5368,-0.54,-0.5297,-0.5341,-0.5292,-0.5292,-0.5266,-0.5267,-0.513,-0.5259,-0.5259,-0.5259,-0.5259,0,-0.5619,-0.5566,-0.5571,-0.5536,-0.5478,-0.5487,-0.5429,-0.5421,-0.5404,-0.5366,-0.5386,-0.5349,-0.5356,-0.5319,-0.532,-0.5261,-0.5253,-0.5249,-0.5249,-0.5245,-0.5245,-0.5228,-0.5233,-0.5256,-0.5256,-0.5257,-0.5258,0,-0.5514,-0.5516,-0.5455,-0.5439,-0.5434,-0.5391,-0.5377,-0.5342,-0.534,-0.5292,-0.5281,-0.5276,-0.5234,-0.5234,-0.5186,-0.5187,-0.5113,-0.5123,-0.5121,-0.5121,-0.5072,-0.5075,-0.4916,-0.4894,-0.504,-0.5039,-0.5038,0,-0.5445,-0.5406,-0.5386,-0.5363,-0.535,-0.5312,-0.529,-0.5298,-0.5273,-0.5245,-0.5213,-0.5173,-0.5141,-0.5073,-0.5064,-0.5027,-0.5033,-0.498,-0.5028,-0.5024,-0.5028,-0.5029,-0.5024,-0.497,-0.4968,-0.4967,-0.4966,0,-0.5322,-0.5324,-0.5292,-0.5259,-0.5231,-0.5206,-0.5182,-0.5162,-0.5167,-0.5138,-0.5096,-0.5071,-0.5023,-0.4982,-0.4946,-0.4933,-0.4949,-0.4952,-0.4938,-0.4931,-0.493,-0.4926,-0.5092,-0.4954,-0.4955,-0.4956,-0.4957,-0.4957,-0.523,-0.5196,-0.5176,-0.5139,-0.5122,-0.51,-0.5066,-0.506,-0.5025,-0.4986,-0.4994,-0.4946,-0.4924,-0.4877,-0.4862,-0.4823,-0.4842,-0.4822,-0.4817,-0.4811,-0.4804,-0.494,-0.4817,-0.4818,-0.4818,-0.4818,-0.4819,0,-0.5105,-0.5094,-0.506,-0.5026,-0.4996,-0.5017,-0.4992,-0.4964,-0.4922,-0.4901,-0.487,-0.482,-0.4781,-0.477,-0.4731,-0.4702,-0.4708,-0.4692,-0.4692,-0.4688,-0.4791,-0.4805,-0.4687,-0.4687,-0.4687,-0.4687,-0.4687,-0.4687,-0.5036,-0.4978,-0.4978,-0.4911,-0.4901,-0.4854,-0.4838,-0.4817,-0.4799,-0.4744,-0.4711,-0.4705,-0.4687,-0.4648,-0.4612,-0.461,-0.4593,-0.4572,-0.4572,-0.4668,-0.4681,-0.4693,-0.4707,-0.4569,-0.4569,-0.4472,-0.4471,-0.447]}]]